User: anonymous   Login
Location: Chevoux
(46.3801°N, 4.9476°E)
Time: 18:46:39
(UTC+00:00)
Language:

Cosmos 2298 Rocket - Orbit

View from above orbital plane
View from above orbital plane
View from above satellite
View from above satellite

Ground track
Ground track

The orbit data is extracted from the following two-line orbital elements,

1 23432U 94083B   21105.56671762 -.00000012  00000-0  49760-5 0  9992
2 23432  74.0309 260.6578 0004636 138.5816 289.0361 14.33556276376450
Epoch (UTC): 15 April 2021 13:36:04
Eccentricity: 0.0004636
inclination: 74.0309°
perigee height: 776 km
apogee height: 783 km
right ascension of ascending node: 260.6578°
argument of perigee: 138.5816°
revolutions per day: 14.33556276
mean anomaly at epoch: 289.0361°
orbit number at epoch: 37645

The dashed part of the orbit path shows where the satellite is in the earth's shadow,  

DLR